Regional Weather Roundup
Issued by NWS New Orleans/Baton Rouge, LA

Home | Current Version | Previous Version | Text Only | Print | Product List | Glossary On
Versions: 1 2 3 4 5 6 7 8 9 10 11 12 13 14 15 16 17 18 19 20 21 22 23 24 25 26 27 28 29 30 31 32 33 34 35 36 37 38 39 40 41 42 43 44 45 46 47 48 49 50
217
ASUS44 KLIX 260210
RWRLIX
NEW ORLEANS REGIONAL WEATHER ROUNDUP
NATIONAL WEATHER SERVICE NEW ORLEANS LA
900 PM CDT SAT OCT 25 2014

NOTE: "FAIR" INDICATES FEW OR NO CLOUDS BELOW 12,000 FEET WITH NO
      SIGNIFICANT WEATHER AND/OR OBSTRUCTIONS TO VISIBILITY.
      SKY/WX - SKY CONDITION AND SIGNIFICANT WEATHER.
      TMP - AIR TEMPERATURE.     DP    - DEWPOINT TEMPERATURE.
      RH  - RELATIVE HUMIDITY.   PRES  - PRESSURE.
      HI  - HEAT INDEX.          WCI   - WIND CHILL INDEX.

*  THESE STATIONS ARE NOT NWS OR FAA STATIONS AND ARE NOT UNDER
   NWS QUALITY CONTROL.

LAZ038-040-048-061>063-065>067-069-260300-
SOUTHEAST LOUISIANA

CITY           SKY/WX    TMP DP  RH WIND       PRES   REMARKS
N.O. AUDUBON     N/A     67  61  80 MISG        N/A
N.O. INTL ARPT CLEAR     68  56  65 W3        30.09R
N.O. LAKEFRONT CLEAR     73  67  81 W7        30.09R
N.O. DOWNTOWN*   N/A     73  54  49 CALM      30.09S
SLIDELL        CLEAR     62  58  86 CALM      30.08R
BATON ROUGE    CLEAR     61  56  83 CALM      30.10R
BOOTHVILLE     CLEAR     65  59  81 SW6       30.09R
BELLE CHASSE   CLEAR     60  56  86 CALM      30.08S
BOGALUSA*        N/A     63  58  84 CALM      30.10S
NEW ROADS*       N/A     61  56  86 CALM      30.10S
GONZALES*        N/A     61  58  92 CALM      30.10R
HAMMOND*       CLEAR     63  57  82 CALM      30.11R
HOUMA*         CLEAR     58  55  90 CALM      30.10R
PORT FOURCHON* CLEAR     72  61  68 CALM      30.13R

$$

MSZ070-080>082-260300-
SOUTHERN MISSISSIPPI

CITY           SKY/WX    TMP DP  RH WIND       PRES   REMARKS
MCCOMB         CLEAR     66  57  72 CALM      30.10R
GULFPORT       CLEAR     63  59  87 CALM      30.07S
BILOXI         CLEAR     67  62  85 W1        30.07S
PASCAGOULA     CLEAR     56  55  97 CALM      30.08R
STENNIS ARPT*  CLEAR     61  57  88 CALM      30.08S

$$

COASTAL OBSERVATIONS
LAKE AND NEARSHORE STATIONS

STATION/POSITION TIME  TEMP    WIND        PRES    WAVE
                       AIR SEA DIR/SP/G            HT/PER
                 (UTC) (F)     (DEG/KT/KT) (MB)    (FT/S)
PASCAGOULA       0200   69     280/  5/  6 1017.7
WAVELAND YACHT   0200   69     290/  6/  7 1017.8
GRAND ISLE       0200   71 72  250/  3/  3 1019.5
SOUTHWEST PASS   0200   70 80              1019.2
NEW CANAL        0200   74 71  270/  3/  4 1019.1
SHELL BEACH      0200   70 68  260/  5/  7 1018.5

OFFSHORE STATIONS

STATION/POSITION TIME  TEMP    WIND        PRES    WAVE
                       AIR SEA DIR/SP/G            HT/PER
                 (UTC) (F)     (DEG/KT/KT) (MB)    (FT/S)
64 S DAUPHIN ISL 0144   74 78  340/ 12/ 16 1018.6    2/ 5

$$




USA.gov is the U.S. government's official web portal to all federal, state and local government web resources and services.